Louisa, VA

7:24 AM EDT on June 27, 2017 (GMT -0400)
Louisa County-Freeman

Weather History for KLKU - November, 2013

Change the Weather History Date:

Wednesday, November 20, 2013

  Actual Average (KOMH) Record (KOMH)
Temperature  
Mean Temperature 40 °F -  
Max Temperature 48 °F 55 °F 74 °F (1985)
Min Temperature 30 °F 34 °F 20 °F (1951)
Degree Days  
Heating Degree Days 24    
Moisture  
Dew Point 27 °F    
Average Humidity 65    
Maximum Humidity 100    
Minimum Humidity 40    
Precipitation  
Precipitation 0.00 in - - ()
Sea Level Pressure  
Sea Level Pressure 30.46 in    
Wind  
Wind Speed 3 mph (NE)    
Max Wind Speed 9 mph    
Max Gust Speed 9 mph    
Visibility 10 miles    
Events      
Averages and records for this station are not official NWS values.
T = Trace of Precipitation, MM = Missing Value Source: NWS Daily Summary

Daily Weather History Graph

Daily Weather History Graph

Search for Another Location

Airport or City:

Trip Planner

Search our weather history database for the weather conditions in past years. The results will help you decide how hot, cold, wet, or windy it might be!

Date:

Astronomy

Nov. 20, 2013 Rise Set
Actual Time 6:58 AM EST 4:56 PM EST
Civil Twilight 6:29 AM EST 5:25 PM EST
Nautical Twilight 5:57 AM EST 5:57 PM EST
Astronomical Twilight 5:26 AM EST 6:28 PM EST
Moon 7:37 PM EST (11/20) 9:21 AM EST (11/20)
Length of Visible Light 10h 55m
Length of Day
9h 58m
Waning Gibbous, 91% of the Moon is Illuminated
Nov 20
Waning Gibbous
Nov 25
Last Quarter
Dec 2
New
Dec 9
First Quarter
Dec 17
Full

Hourly Weather History & Observations

Time (EST) Temp. Windchill Dew Point Humidity Pressure Visibility Wind Dir Wind Speed Gust Speed Precip Events Conditions
12:15 AM 37.4 °F - 26.6 °F 65% 30.36 in 10.0 mi Calm Calm - N/A   Clear
12:35 AM 37.4 °F - 26.6 °F 65% 30.37 in 10.0 mi Calm Calm - N/A   Clear
12:55 AM 37.4 °F - 26.6 °F 65% 30.37 in 10.0 mi Calm Calm - N/A   Clear
1:15 AM 37.4 °F 34.9 °F 26.6 °F 65% 30.37 in 10.0 mi North 3.5 mph - N/A   Clear
1:35 AM 37.4 °F 33.8 °F 26.6 °F 65% 30.37 in 10.0 mi NNE 4.6 mph - N/A   Clear
1:55 AM 37.4 °F - 26.6 °F 65% 30.38 in 10.0 mi Calm Calm - N/A   Clear
2:15 AM 37.4 °F 34.9 °F 26.6 °F 65% 30.39 in 10.0 mi North 3.5 mph - N/A   Clear
2:35 AM 37.4 °F 33.8 °F 26.6 °F 65% 30.38 in 10.0 mi NNE 4.6 mph - N/A   Clear
2:55 AM 37.4 °F 33.8 °F 26.6 °F 65% 30.39 in 10.0 mi NNE 4.6 mph - N/A   Clear
3:15 AM 37.4 °F 33.8 °F 26.6 °F 65% 30.40 in 10.0 mi North 4.6 mph - N/A   Clear
3:35 AM 37.4 °F 33.8 °F 26.6 °F 65% 30.40 in 10.0 mi NNE 4.6 mph - N/A   Clear
3:55 AM 35.6 °F 32.8 °F 26.6 °F 70% 30.41 in 10.0 mi North 3.5 mph - N/A   Clear
4:15 AM 35.6 °F 30.7 °F 26.6 °F 70% 30.41 in 10.0 mi North 5.8 mph - N/A   Clear
4:35 AM 35.6 °F 32.8 °F 26.6 °F 70% 30.42 in 10.0 mi North 3.5 mph - N/A   Clear
4:55 AM 35.6 °F 32.8 °F 26.6 °F 70% 30.42 in 10.0 mi NNE 3.5 mph - N/A   Clear
5:15 AM 35.6 °F 32.8 °F 26.6 °F 70% 30.42 in 10.0 mi North 3.5 mph - N/A   Clear
5:35 AM 35.6 °F 31.7 °F 26.6 °F 70% 30.43 in 10.0 mi North 4.6 mph - N/A   Clear
5:55 AM 35.6 °F 31.7 °F 26.6 °F 70% 30.43 in 10.0 mi North 4.6 mph - N/A   Clear
6:15 AM 35.6 °F 31.7 °F 26.6 °F 70% 30.44 in 10.0 mi North 4.6 mph - N/A   Clear
6:35 AM 35.6 °F 31.7 °F 26.6 °F 70% 30.45 in 10.0 mi North 4.6 mph - N/A   Clear
6:55 AM 35.6 °F 30.7 °F 26.6 °F 70% 30.46 in 10.0 mi North 5.8 mph - N/A   Clear
7:15 AM 35.6 °F 31.7 °F 26.6 °F 70% 30.46 in 10.0 mi North 4.6 mph - N/A   Clear
7:35 AM 35.6 °F 31.7 °F 26.6 °F 70% 30.47 in 10.0 mi North 4.6 mph - N/A   Clear
7:55 AM 35.6 °F 30.7 °F 26.6 °F 70% 30.49 in 10.0 mi North 5.8 mph - N/A   Clear
8:15 AM 37.4 °F 33.8 °F 26.6 °F 65% 30.49 in 10.0 mi North 4.6 mph - N/A   Clear
8:35 AM 37.4 °F 32.1 °F 26.6 °F 65% 30.49 in 10.0 mi North 6.9 mph - N/A   Clear
8:55 AM 37.4 °F 32.1 °F 24.8 °F 60% 30.51 in 10.0 mi NNE 6.9 mph - N/A   Clear
9:15 AM 39.2 °F 33.6 °F 26.6 °F 61% 30.52 in 10.0 mi NNE 8.1 mph - N/A   Clear
9:35 AM 39.2 °F 34.2 °F 24.8 °F 56% 30.52 in 10.0 mi NNE 6.9 mph - N/A   Clear
9:55 AM 41.0 °F 35.2 °F 26.6 °F 57% 30.51 in 10.0 mi NE 9.2 mph - N/A   Clear
10:15 AM 42.8 °F 38.0 °F 26.6 °F 53% 30.52 in 10.0 mi NNE 8.1 mph - N/A   Clear
10:35 AM 42.8 °F 38.0 °F 26.6 °F 53% 30.52 in 10.0 mi ENE 8.1 mph - N/A   Clear
10:55 AM 44.6 °F 43.1 °F 26.6 °F 49% 30.52 in 10.0 mi ENE 3.5 mph - N/A   Clear
11:15 AM 44.6 °F 40.7 °F 24.8 °F 46% 30.51 in 10.0 mi NNE 6.9 mph - N/A   Clear
11:35 AM 44.6 °F 40.2 °F 26.6 °F 49% 30.49 in 10.0 mi ENE 8.1 mph - N/A   Clear
11:55 AM 46.4 °F 44.3 °F 26.6 °F 46% 30.48 in 10.0 mi ENE 4.6 mph 9.2 mph N/A   Clear
12:15 PM 46.4 °F 42.4 °F 26.6 °F 46% 30.47 in 10.0 mi NNE 8.1 mph - N/A   Clear
12:35 PM 46.4 °F 41.9 °F 26.6 °F 46% 30.47 in 10.0 mi NNE 9.2 mph - N/A   Clear
12:55 PM 46.4 °F 42.9 °F 24.8 °F 43% 30.47 in 10.0 mi ESE 6.9 mph - N/A   Clear
1:15 PM 46.4 °F 45.2 °F 26.6 °F 46% 30.46 in 10.0 mi NE 3.5 mph 9.2 mph N/A   Clear
1:35 PM 48.2 °F - 26.6 °F 43% 30.45 in 7.0 mi ENE 4.6 mph - N/A   Clear
1:55 PM 48.2 °F - 24.8 °F 40% 30.44 in 10.0 mi NE 9.2 mph - N/A   Clear
2:15 PM 48.2 °F - 24.8 °F 40% 30.44 in 10.0 mi Calm Calm - N/A   Clear
2:35 PM 48.2 °F - 24.8 °F 40% 30.44 in 10.0 mi NE 4.6 mph - N/A   Clear
2:55 PM 48.2 °F - 24.8 °F 40% 30.44 in 10.0 mi SE 3.5 mph - N/A   Clear
3:15 PM 48.2 °F - 26.6 °F 43% 30.44 in 10.0 mi NE 4.6 mph - N/A   Clear
3:35 PM 48.2 °F - 26.6 °F 43% 30.45 in 10.0 mi East 4.6 mph - N/A   Clear
3:55 PM 46.4 °F 43.5 °F 28.4 °F 50% 30.45 in 10.0 mi NE 5.8 mph - N/A   Clear
4:15 PM 46.4 °F 44.3 °F 28.4 °F 50% 30.45 in 10.0 mi ENE 4.6 mph - N/A   Clear
4:35 PM 46.4 °F 45.2 °F 28.4 °F 50% 30.46 in 10.0 mi NE 3.5 mph - N/A   Clear
4:55 PM 42.8 °F - 30.2 °F 61% 30.46 in 10.0 mi Calm Calm - N/A   Clear
5:15 PM 39.2 °F 37.0 °F 30.2 °F 70% 30.47 in 10.0 mi ENE 3.5 mph - N/A   Clear
5:35 PM 39.2 °F - 28.4 °F 65% 30.48 in 10.0 mi Calm Calm - N/A   Clear
5:55 PM 35.6 °F - 28.4 °F 75% 30.48 in 10.0 mi Calm Calm - N/A   Clear
6:15 PM 35.6 °F - 28.4 °F 75% 30.48 in 10.0 mi Calm Calm - N/A   Clear
6:35 PM 35.6 °F - 28.4 °F 75% 30.49 in 10.0 mi Calm Calm - N/A   Clear
6:55 PM 33.8 °F - 28.4 °F 81% 30.49 in 10.0 mi Calm Calm - N/A   Scattered Clouds
7:15 PM 33.8 °F - 28.4 °F 81% 30.49 in 10.0 mi Calm Calm - N/A   Scattered Clouds
7:35 PM 37.4 °F 34.9 °F 30.2 °F 75% 30.49 in 10.0 mi ENE 3.5 mph - N/A   Scattered Clouds
7:55 PM 35.6 °F - 30.2 °F 81% 30.50 in 10.0 mi Calm Calm - N/A   Mostly Cloudy
8:15 PM 37.4 °F - 30.2 °F 75% 30.50 in 10.0 mi Calm Calm - N/A   Overcast
8:35 PM 33.8 °F - 30.2 °F 87% 30.50 in 10.0 mi Calm Calm - N/A   Scattered Clouds
8:55 PM 33.8 °F - 30.2 °F 87% 30.51 in 10.0 mi Calm Calm - N/A   Clear
9:15 PM 33.8 °F - 30.2 °F 87% 30.51 in 10.0 mi Calm Calm - N/A   Clear
9:35 PM 33.8 °F 30.8 °F 30.2 °F 87% 30.51 in 10.0 mi ENE 3.5 mph - N/A   Clear
9:55 PM 33.8 °F 30.8 °F 30.2 °F 87% 30.51 in 10.0 mi ENE 3.5 mph - N/A   Clear
10:15 PM 35.6 °F 31.7 °F 30.2 °F 81% 30.51 in 10.0 mi NE 4.6 mph - N/A   Clear
10:35 PM 35.6 °F - 30.2 °F 81% 30.51 in 10.0 mi Calm Calm - N/A   Clear
10:55 PM 35.6 °F - 30.2 °F 81% 30.50 in 10.0 mi Calm Calm - N/A   Clear
11:15 PM 33.8 °F - 30.2 °F 87% 30.52 in 10.0 mi Calm Calm - N/A   Clear
11:35 PM 33.8 °F - 30.2 °F 87% 30.52 in 10.0 mi Calm Calm - N/A   Clear
11:55 PM 30.2 °F - 30.2 °F 100% 30.52 in 10.0 mi Calm Calm - N/A   Clear